GW5556 Weather Reports


time (UTC)temp
C
wind
direction
speed
KPH
gust
KPH
rain 1hr
cm
rain 24hr
cm
rain mn
cm
humidity
%
barometer
mb
20260504174506 21 159 8.0 16.1 0.00 0.00 0.00 33 1013.4
20260504173007 21 265 6.4 24.1 0.00 0.00 0.00 32 1013.2
20260504171504 20 225 6.4 29.0 0.00 0.00 0.00 31 1013.5
20260504081535 2 146 0.0 3.2 0.00 0.00 0.00 65 1014.9
20260504050019 5 146 0.0 4.8 0.00 0.00 0.00 63 1015.3
20260504044523 5 146 0.0 4.8 0.00 0.00 0.00 63 1015.2
20260504043034 5 146 0.0 3.2 0.00 0.00 0.00 62 1015.1
20260504041523 5 138 1.6 3.2 0.00 0.00 0.00 62 1015.2
20260504040007 5 138 0.0 3.2 0.00 0.00 0.00 59 1015.1
20260504034510 6 138 0.0 3.2 0.00 0.00 0.00 58 1015.0
20260504033004 6 138 0.0 1.6 0.00 0.00 0.00 58 1015.0
20260504031510 6 138 0.0 3.2 0.00 0.00 0.00 57 1015.1
20260504030009 6 138 0.0 0.0 0.00 0.00 0.00 55 1015.2
20260504024508 7 138 0.0 3.2 0.00 0.00 0.00 54 1015.2
20260504023014 7 138 0.0 0.0 0.00 0.00 0.00 53 1015.0
20260504021508 7 138 0.0 1.6 0.00 0.00 0.00 51 1015.0
20260504020006 8 138 0.0 1.6 0.00 0.00 0.00 47 1014.9
20260504014503 8 138 0.0 1.6 0.00 0.00 0.00 46 1014.5
20260504013027 9 138 0.0 3.2 0.00 0.00 0.00 44 1014.3
20260504011515 10 138 1.6 4.8 0.00 0.00 0.00 42 1014.2
20260504010014 10 138 0.0 1.6 0.00 0.00 0.00 40 1013.7
20260504004510 11 138 0.0 3.2 0.00 0.00 0.00 36 1014.0
20260504003008 12 138 0.0 3.2 0.00 0.00 0.00 34 1013.9
20260504001510 13 138 1.6 4.8 0.00 0.00 0.00 31 1013.8
20260504000011 15 136 3.2 4.8 0.00 0.00 0.00 25 1013.5
20260503234523 16 144 0.0 6.4 0.00 0.00 0.00 20 1013.5
20260503233021 16 180 1.6 6.4 0.00 0.00 0.00 19 1013.3
20260503231518 16 188 1.6 12.9 0.00 0.00 0.00 19 1013.3
20260503230011 17 215 3.2 9.7 0.00 0.00 0.00 18 1013.3
20260503224513 17 186 4.8 12.9 0.00 0.00 0.00 15 1013.3
20260503223023 18 183 4.8 9.7 0.00 0.00 0.00 15 1013.3
20260503221522 18 309 3.2 11.3 0.00 0.00 0.00 14 1013.4
20260503220016 18 302 4.8 14.5 0.00 0.00 0.00 15 1013.6
20260503214518 18 207 1.6 11.3 0.00 0.00 0.00 14 1013.7
20260503213011 18 283 4.8 14.5 0.00 0.00 0.00 12 1013.7
20260503211522 18 225 8.0 16.1 0.00 0.00 0.00 11 1013.9
20260503210024 18 257 8.0 16.1 0.00 0.00 0.00 11 1014.1
20260503204516 18 185 3.2 8.0 0.00 0.00 0.00 14 1014.1
20260503203035 17 228 1.6 12.9 0.00 0.00 0.00 12 1014.2
20260503201519 17 225 8.0 16.1 0.00 0.00 0.00 11 1014.5
20260503200017 17 268 3.2 19.3 0.00 0.00 0.00 15 1014.6
20260503194537 17 208 8.0 22.5 0.00 0.00 0.00 12 1015.0
20260503193027 17 281 4.8 16.1 0.00 0.00 0.00 16 1015.0
20260503191519 16 161 3.2 14.5 0.00 0.00 0.00 13 1015.3
20260503190006 16 206 8.0 17.7 0.00 0.00 0.00 17 1015.5
20260503184515 16 256 3.2 14.5 0.00 0.00 0.00 15 1015.7
20260503183003 16 157 6.4 19.3 0.00 0.00 0.00 15 1015.9
20260503181510 16 246 6.4 11.3 0.00 0.00 0.00 17 1016.1
20260503180012 15 147 4.8 12.9 0.00 0.00 0.00 20 1016.1